www.pogodaiklimat.ru

Погода и климат >> Архив погоды >> Россия >> Ненецкий АО >> Амдерма


ПОГОДА в Амдерме

  • Прогноз погоды в Амдерме
  • Монитор погоды в Амдерме
  • Климат города

АРХИВ ПОГОДЫ в Амдерме

Время (UTC), дата Ветер
(напр.,м/с)
 
Видим.   Явления Облачность Т
(С)
Тd
(С)
f
(%)
Тe
(С)
Тes
(С)
Комфортность P
(гПа)
Po
(гПа)
Тmin
(С)
Tmax
(С)
R
(мм)
R24
(мм)
S
(см)
06 19.05 ЮЗ 3 10 км 3/0
[Ac trans Ci fib]
-5.4 -8.1 81 -11 -5 1018.2 1011.6
09 19.05 З 4 10 км 8/0
[Ac trans]
-2.9 -6.1 79 -9 -6 1018.4 1011.9
12 19.05 З 3 10 км 3/3 600 м
[Cu Sc]
-2.5 -5.2 82 -8 -4 1018.9 1012.4
15 19.05 З 1 10 км 6/6 600 м
[Cu Sc]
-3.5 -5.7 85 -6 -5 1018.9 1012.4 -2.2
18 19.05 Ю 2 10 км 3/3 600 м
[Cu Sc]
-6.4 -7.5 92 -11 -11 1018.4 1011.9
21 19.05 10 км н/о -9.3 -9.8 96 -15 -15 1018.0 1011.3
00 20.05 Ю 4 10 км 6/3 300 м
[Sc Ci fib]
-7.9 -9.4 89 -15 -14 1016.9 1010.3
03 20.05 Ю 5 10 км 8/8 600 м
[Sc]
-5.1 -6.3 91 -12 -12 1015.5 1009.0 -10.0 33
06 20.05 Ю 8-10
{10}
10 км 9/0
[Ac trans Ci fib]
-3.6 -6.5 80 -12 -11 1013.9 1007.4
09 20.05 Ю 8-10
{11}
10 км позёмок {метель} 6/0
[Ac trans Ci fib]
-3.0 -5.5 83 -11 -10 1012.9 1006.4
12 20.05 Ю 9-10
{11}
10 км позёмок {метель} 9/0
[Ac trans Ci fib]
-2.7 -5.5 81 -11 -11 1011.4 1004.9
15 20.05 Ю 8-10
{10}
10 км позёмок {метель} 9/0
[Ac trans Ci fib]
-4.1 -6.6 83 -13 -12 1009.9 1003.5 -2.7
18 20.05 В 8
{13}
10 км {метель} 8/1 600 м
[Sc Cc]
-6.6 -8.4 87 -16 -16 1008.9 1002.3
21 20.05 В 6
{11}
10 км 8/0
[Ac trans Ci fib]
-8.5 -10.9 83 -17 -17 1007.7 1001.2
00 21.05 В 8
{10}
10 км 9/0
[Ac trans Ci fib]
-9.0 -11.5 82 -19 -18 1006.7 1000.1
03 21.05 СВ 5
{10}
4000 м в посл. час туман 9/8 300 м
[St Ci fib]
-6.0 -6.7 95 -13 -13 1005.2 998.7 -10.3 32
06 21.05 В 10-13
{13}
10 км позёмок {туман, метель} 9/1 300 м
[Cu hum Ci sp]
-6.3 -7.5 91 -16 -16 1004.6 998.1
09 21.05 В 13-15
{19}
10 км сильный позёмок {метель} 9/3 300 м
[Cu med, cong Ci sp]
-4.3 -5.7 90 -15 -15 1005.8 999.3
12 21.05 В 12-15
{16}
10 км слабый ливневой снег {метель} 10/10 300 м
[Cb cap]
-5.1 -6.3 91 -16 -16 1007.9 1001.4
15 21.05 В 11-14
{16}
10 км позёмок {ливн. осадки, метель} 10/10 300 м
[Sc]
-5.7 -6.8 92 -16 -16 1009.0 1002.5 -4.1
18 21.05 В 12-14
{16}
10 км позёмок {ливн. осадки, метель} 10/10 600 м
[Sc]
-6.3 -7.4 92 -17 -17 1009.5 1003.0
21 21.05 В 10-14
{14}
10 км позёмок {метель} 10/10 600 м
[Sc]
-6.3 -7.4 92 -16 -16 1009.8 1003.3
00 22.05 В 11-13
{14}
10 км позёмок {метель} 10/10 600 м
[Sc]
-6.3 -7.5 91 -17 -17 1010.1 1003.5
03 22.05 В 10-12
{15}
10 км позёмок {метель} 10/10 600 м
[Sc]
-5.8 -7.5 88 -16 -16 1010.4 1003.9 -6.7 34
06 22.05 СВ 8-11
{13}
10 км слабый ливневой снег {метель} 10/10 300 м
[Cb cap]
-5.3 -7.6 84 -14 -14 1010.7 1004.2
09 22.05 СВ 7
{12}
10 км {ливн. осадки, метель} 10/10 600 м
[Sc]
-4.8 -7.8 79 -13 -13 1011.0 1004.5
12 22.05 СВ 6
{10}
10 км слабый ливневой снег {метель} 10/10 600 м
[Cb cap]
-4.8 -8.0 78 -12 -12 1011.7 1005.2
15 22.05 СВ 5 10 км {ливн. осадки} 10/10 600 м
[Sc]
-4.9 -8.0 79 -12 -12 1011.2 1004.7 -4.7
18 22.05 СВ 4 10 км слабый ливневой снег 10/10 600 м
[Cb cap]
-5.1 -8.0 80 -11 -11 1010.4 1003.9
21 22.05 С 2 10 км {ливн. осадки} 10/10 600 м
[Sc]
-5.4 -8.6 78 -10 -10 1009.8 1003.3
00 23.05 В 3 10 км слабый ливневой снег 10/10 600 м
[Cb cap]
-6.3 -8.7 83 -12 -12 1009.6 1003.1
03 23.05 В 1 10 км слабый ливневой снег 10/10 600 м
[Cb cap]
-6.0 -8.9 80 -8 -8 1009.3 1002.7 -6.4 34
06 23.05 Ю 3 10 км слабый ливневой снег 10/10 600 м
[Cb cap]
-5.8 -8.0 84 -11 -11 1009.0 1002.4
09 23.05 Ю 6 10 км слабый ливневой снег 10/10 600 м
[Cb cap]
-5.3 -7.5 84 -13 -13 1008.6 1002.1
12 23.05 Ю 7 10 км слабый ливневой снег 10/10 600 м
[Cb cap]
-5.1 -7.4 84 -13 -13 1007.9 1001.4
15 23.05 Ю 7
{10}
10 км слабый ливневой снег {метель} 10/10 600 м
[Cb cap]
-5.1 -6.8 88 -13 -13 1006.4 999.9 -4.9 0.2
18 23.05 Ю 6
{11}
10 км {ливн. осадки, метель} 9/9 300 м
[Cu Sc]
-6.1 -7.8 88 -14 -14 1004.8 998.3
21 23.05 Ю 10-12
{14}
10 км позёмок {метель} 10/4 600 м
[Sc Ac und]
-6.4 -7.8 90 -16 -16 1002.4 995.9
00 24.05 Ю 10-12
{14}
10 км позёмок {метель} 10/10 600 м
[Sc]
-4.7 -5.7 93 -14 -14 1000.2 993.7
03 24.05 Ю 10-12
{15}
2000 м слабый ливневой снег {метель} 9/9 300 м
[Cb cap]
-2.9 -3.7 94 -12 -12 998.7 992.3 -6.5 34
06 24.05 Ю 9-11
{12}
10 км позёмок {ливн. осадки, метель} 9/9 300 м
[Sc]
-1.5 -3.2 88 -10 -10 998.2 991.8
09 24.05 Ю 9-11
{12}
4000 м слабый ливневой снег {метель} 9/9 300 м
[Cb cap]
-0.3 -1.1 94 -8 -8 998.2 991.9
12 24.05 З 4
{11}
10 км слабый ливневой снег {метель} 10/10 300 м
[Cb cap]
-0.1 -1.2 92 -6 -6 999.1 992.8
15 24.05 З 5 10 км слабый ливневой снег 10/10 300 м
[Cb cap]
-2.1 -2.9 94 -9 -9 1000.2 993.8 +0.2 0.3
18 24.05 ЮЗ 5 10 км {ливн. осадки} 9/9 300 м
[Sc]
-3.6 -4.5 93 -11 -11 1000.5 994.1
21 24.05 Ю 3 10 км в посл. час ливневой снег {метель} 8/8 600 м
[Sc]
-3.6 -4.2 96 -9 -9 1000.0 993.6
00 25.05 В 5 4000 м слабый ливневой снег 10/10 600 м
[Cb cap]
-4.2 -4.6 97 -11 -11 999.7 993.3
03 25.05 штиль 0 50 км слабый ливневой снег {метель} ?/? -3.8 -4.2 97 -5 -5 999.8 993.4 -4.6 1 35
06 25.05 С 3 2000 м слабый ливневой снег {метель} 10/10 300 м
[Cb cap]
-3.5 -4.0 96 -9 -9 1001.4 995.0
09 25.05 З 2 10 км {ливн. осадки} 9/8 600 м
[Sc Ac trans Ci fib]
-2.0 -2.7 95 -6 -5 1003.1 996.7
12 25.05 СЗ 5 10 км слабый ливневой снег 10/10 300 м
[Cb cap]
-1.4 -2.7 91 -8 -8 1004.3 997.9
15 25.05 СЗ 5 10 км {ливн. осадки} 10/10 600 м
[Sc]
-3.6 -5.8 85 -10 -10 1006.4 999.9 -0.8 1
18 25.05 З 6
{10}
10 км {ливн. осадки} 10/10 600 м
[Sc]
-4.5 -7.3 81 -12 -12 1007.3 1000.9
21 25.05 З 5
{10}
10 км 10/10 600 м
[Sc]
-5.2 -7.6 83 -12 -12 1008.1 1001.6
00 26.05 З 6
{11}
10 км 10/10 600 м
[Sc]
-5.6 -7.4 87 -14 -14 1008.9 1002.4
03 26.05 З 5 10 км 9/8 600 м
[Sc Ac trans]
-5.5 -7.2 88 -13 -12 1009.4 1002.9 -6.3 36

 

Местоположение метеостанции Амдерма (Ненецкий АО, Россия): широта 69.77 долгота 61.68 высота над уровнем моря 48 м.

В архиве по умолчанию представлена погода в Амдерме за последнюю неделю. Архивные данные за месяц целиком и за предыдущие месяцы, начиная с января 2011 года, Вы можете получить, выбрав интересующий диапазон дат из раскрывающегося списка и нажав кнопку "Ввод!".

Внимание! Время в таблицах - всемирное. Для получения местного времени необходимо прибавить поправку, которая в Амдерме равна 3 ч.

Смотрите также архив погоды в соседних городах и на ближайших метеорологических станциях:

Погода на Мысе Белый Нос (Ненецкий АО, Россия) (60 км)
Погода в Имени Федорова (Ненецкий АО, Россия) (124 км)
Погода в Усть-Каре (Ненецкий АО, Россия) (139 км)
Погода в Варандее (Ненецкий АО, Россия) (179 км)
Погода в Inari Angeli (Финляндия) (186 км)
Погода в Марресаля (Ямало-Ненецкий АО, Россия) (197 км)
Погода в Воркуте (Коми, Россия) (271 км)
Погода на Мысе Константиновском (Ненецкий АО, Россия) (279 км)
Погода в Хорей-Вере (Ненецкий АО, Россия) (300 км)
Погода в Елецкой (Коми, Россия) (318 км)

Пояснения к столбцам:

Ветер - указаны скорость ветра в м/с - средняя за 10 мин, порывы в срок и между сроками (в фигурных скобках) и направление, откуда дует ветер: С - северный, СВ - северо-восточный, В - восточный, ЮВ - юго-восточный, Ю - южный, ЮЗ - юго-западный, З - западный, СЗ - северо-западный.
Видимость - горизонтальная дальность видимости в метрах или километрах. При видимости от 1 до 10 км при отсутствии осадков обычно наблюдается дымка, при ухудшении видимости до 1 км и менее - туман. В сухую погоду видимость может ухудшаться дымом, пылью или мглою.
Явления - указаны атмосферные явления, наблюдавшиеся в срок или в последний час перед сроком; фигурными скобками обозначены явления, наблюдавшиеся между сроками (за 1-3 часа до срока); квадратными скобками обозначены град или гололедные отложения с указанием их диаметра в мм.
Облачность - указаны через наклонную черту общая и нижняя облачность в баллах и высота нижней границы облаков в метрах; квадратными скобками обозначены формы облаков: Ci - перистые, Cs - перисто-слоистые, Cc - перисто-кучевые, Ac - высококучевые, As - высокослоистые, Sc - слоисто-кучевые, Ns - слоисто-дождевые, Cu - кучевые, Cb - кучево-дождевые. Подробнее классификацию облаков см. в Атласе облаков (PDF).
T - Температура воздуха - температура, измеренная на высоте 2 м над землей.
Td - Температура точки росы - температура, при понижении до которой содержащийся в воздухе водяной пар достигнет насыщения.
f - Относительная влажность воздуха - влажноcть воздуха, измеренная на высоте 2 м над землей.
Te - Эффективная температура - температура, которую ощущает одетый по сезону человек в тени. Характеристика душности погоды. При расчете учитывается влияние влажности воздуха и скорости ветра на теплоощущения человека.
Tes - Эффективная температура на солнце - температура, которую ощущает человек, с поправкой на солнечный нагрев. Характеристика знойности погоды. Зависит от высоты солнца над горизонтом, облачности и скорости ветра. Ночью, в пасмурную погоду, а также при ветре 12 м/с и более поправка равна нулю.
P - Атмосферное давление - приведенное к уровню моря атмосферное давление.
Po - Атмосферное давление - измеренное на уровне метеостанции атмосферное давление.
Tmin - Минимальная температура - минимум температуры воздуха на высоте 2 м над землей.
Tmax - Максимальная температура - максимум температуры воздуха на высоте 2 м над землей.
R - Количество осадков - Количество выпавших осадков за период времени, мм. При наведении курсора мыши на число - период времени, за который выпало указанное количество осадков.
R24 - Количество осадков - Количество выпавших осадков за 24 часа, мм.
S - Снежный покров - Высота снежного покрова, см. При наведении курсора мыши на число - состояние снежного покрова и степень покрытия местности в баллах.